Other Surface Observations
Issued by NWS Tucson, AZ

Home | Current Version | Previous Version | Text Only | Print | Product List | Glossary On
Versions: 1 2 3 4 5 6 7 8 9 10 11 12 13 14 15 16 17 18 19 20 21 22 23 24 25 26 27 28 29 30 31 32 33 34 35 36 37 38 39 40 41 42 43 44 45 46 47 48 49 50
591
SXUS55 KTWC 100015
OSOTWC

WEATHER ROUNDUP FOR SOUTHEAST ARIZONA
NATIONAL WEATHER SERVICE TUCSON AZ
515 PM MST TUE FEB 09 2016

AZZ504>506-514-100115-
LOCATION       SKY/WX    TMP DP  RH WIND       PRES   REMARKS
TUCSON         SUNNY     82  14   8 N6        30.14S
DAVIS-MONTHAN  SUNNY     80  14   8 N8        30.13R
CHILDRENS PARK N/A      N/A N/A  11 NW4               PIMA CO DEQ
ALVERNON/22ND  N/A       84 N/A N/A NE3               PIMA CO DEQ
CHERRY/GLENN   N/A       82 N/A N/A N/A               PIMA CO DEQ
TANGERINE      N/A       80 N/A N/A N/A               PIMA CO DEQ
CONTL RANCH    N/A       81  22  11 NW5               PIMA CO DEQ
GRANT/1ST      N/A       81  19  10 N3                PIMA CO DEQ
CRAYCROFT/22ND N/A       82  18   9 N/A               PIMA CO DEQ
GOLFLINKS/KOLB N/A       81  17   9 E3                PIMA CO DEQ
AJO/12TH       N/A       81  14   8 N/A               PIMA CO DEQ
SAGUARO EAST   N/A       27 -21  10 NE9               PIMA CO DEQ
FAIRGROUNDS    N/A       79 N/A N/A SE11              PIMA CO DEQ
SAGUARO        N/A       82  15   8 SE7G13            *SABINO CYN
SAN CARLOS     N/A       74  23  15 SW5               *SAN CARLOS
GREEN VALLEY   N/A       80  13   8 NE9               PIMA CO DEQ
HORSE CAMP CYN N/A       71  23  16 E6G14             *ARAVAIPA CYN
RINCON MTNS    N/A       51  11  20 NE10G18           *NR MANNING CAMP
$$

AZZ509>511-100115-
LOCATION       SKY/WX    TMP DP  RH WIND       PRES   REMARKS
SAFFORD        SUNNY     72  20  14 S3        30.20S
STRAY HORSE    N/A       59  20  22 S4G10             *
TRAIL CABIN    N/A       63  21  20 W5G11             *N OF GRANVILLE
BLACK HILLS    N/A       72  22  15 SE3               *N OF FT THOMAS
DRY LAKE       N/A       60  21  22 SW4               *NATANES MTNS
NOON CREEK     N/A       67  19  16 N2G11             *PINALENO MTNS
COLUMBINE      N/A       53   0  11 NE4G11            *PINALENO MTNS
GUTHRIE        N/A       61  16  17 S4G11             *SW OF GUTHRIE
$$

AZZ502-503-513-100115-
LOCATION       SKY/WX    TMP DP  RH WIND       PRES   REMARKS
NOGALES        SUNNY     77  11   8 NE9       30.17R
SELLS          N/A       82  18   9 NE13G20           *
SASABE         N/A       80  13   8 N7G16             *ALTAR VLY
HOPKINS        N/A       60  11  14 E12G22            *SANTA RITA MTNS
CARR CYN       N/A       61  28  28 SW2               *W OF HEREFORD
$$

AZZ507-508-512-100115-
LOCATION       SKY/WX    TMP DP  RH WIND       PRES   REMARKS
SIERRA VISTA   NOT AVBL
DOUGLAS        SUNNY     71  13  10 E13       30.22S
EMPIRE MTNS    N/A       72  15  11 NE7G14            *LAS CIENEGAS NCA
MULESHOE RANCH N/A       70  13  11 E11G18            *PRESERVE
HEADQUARTERS   N/A       64  15  15 E10G18            *CHIRICAHUA MTNS
$$

.............................NOTES.............................
THIS IS AN AUTOMATED COLLECTIVE WITH MINIMAL QUALITY CONTROL.
PIMA CO DEQ SITES HAVE NONSTANDARD WIND SENSOR HEIGHTS.
PIMA CO DEQ SITES DO NOT REPORT WIND GUSTS.
* INDICATES WIND SENSORS LOCATED AT 20 FEET INSTEAD OF 33 FEET.
..............................KEY..............................
SKY/WX - SKY CONDITION/WEATHER
TMP    - TEMPERATURE IN FAHRENHEIT
DP     - DEWPOINT IN FAHRENHEIT
RH     - RELATIVE HUMIDITY IN PERCENT
WIND   - DIRECTION AND SPEED IN MILES PER HOUR (MPH)
VRB    - VARIABLE WIND DIRECTION
PRES   - MEAN SEA LEVEL PRESSURE IN INCHES OF MERCURY
         F - FALLING PRESSURE   R - RISING PRESSURE
         S - STEADY PRESSURE
VSB    - VISIBILITY IN MILES
HX     - HEAT INDEX IN FAHRENHEIT
WCI    - WIND CHILL INDEX IN FAHRENHEIT
N/A    - NOT AVAILABLE
AFB    - AIR FORCE BASE
         DAVIS-MONTHAN IS DAVIS-MONTHAN AIR FORCE BASE
CYN    - CANYON
MTNS   - MOUNTAINS
NCA    - NATIONAL CONSERVATION AREA
NR     - NEAR
VLY    - VALLEY
CONTL  - CONTINENTAL
PIMA CO DEQ - PIMA COUNTY DEPT OF ENVIRONMENTAL QUALITY



USA.gov is the U.S. government's official web portal to all federal, state and local government web resources and services.